Weather History for Mansfield, OH

Change the Weather History Date:

Wednesday, December 25, 2013

  Actual Average Record
Temperature  
Mean Temperature 18 °F 27 °F  
Max Temperature 28 °F 34 °F 62 °F (1982)
Min Temperature 8 °F 20 °F -15 °F (2004)
Degree Days  
Heating Degree Days 47 38  
Month to date heating degree days 864 866  
Since 1 July heating degree days 2196 2147  
Cooling Degree Days 0 0  
Month to date cooling degree days 0 0  
Year to date cooling degree days 741 632  
Moisture  
Dew Point 13 °F    
Average Humidity 74    
Maximum Humidity 92    
Minimum Humidity 55    
Precipitation  
Precipitation 0.00 in 0.10 in 1.00 in (1951)
Month to date precipitation 3.81 2.67  
Year to date precipitation 42.65 43.57  
Snow  
Snow 0.00 in 0.40 in - ()
Month to date snowfall 12.7 8.0  
Since 1 July snowfall 14.3 10.7  
Snow Depth 1.00 in    
Sea Level Pressure  
Sea Level Pressure 30.35 in    
Wind  
Wind Speed 10 mph (South)    
Max Wind Speed 20 mph    
Max Gust Speed 24 mph    
Visibility 10 miles    
Events      
T = Trace of Precipitation, MM = Missing Value Source: NWS Daily Summary

Daily Weather History Graph

Daily Weather History Graph

Search for Another Location

Airport:

Trip Planner

Search our weather history database for the weather conditions in past years. The results will help you decide how hot, cold, wet, or windy it might be!

Date:

Astronomy

Dec. 25, 2013 Rise Set
Actual Time 7:52 AM EST 5:07 PM EST
Civil Twilight 7:21 AM EST 5:38 PM EST
Nautical Twilight 6:47 AM EST 6:13 PM EST
Astronomical Twilight 6:13 AM EST 6:46 PM EST
Moon 12:17 AM EST (12/25) 12:13 PM EST (12/25)
Length of Visible Light 10h 17m
Length of Day
9h 15m
Waning Gibbous, 49% of the Moon is Illuminated
Dec 25
Waning Gibbous
Jan 1
New
Jan 7
First Quarter
Jan 15
Full
Jan 24
Last Quarter

Hourly Weather History & Observations

Time (EST) Temp. Windchill Dew Point Humidity Pressure Visibility Wind Dir Wind Speed Gust Speed Precip Events Conditions
12:52 AM 10.0 °F - 6.1 °F 84% 30.51 in 10.0 mi Calm Calm - N/A   Clear
1:52 AM 9.0 °F - 6.1 °F 88% 30.52 in 10.0 mi Calm Calm - N/A   Clear
2:52 AM 10.9 °F 1.4 °F 8.1 °F 88% 30.50 in 10.0 mi SE 5.8 mph - N/A   Clear
3:52 AM 12.9 °F 1.6 °F 9.0 °F 84% 30.49 in 10.0 mi SSE 8.1 mph - N/A   Scattered Clouds
4:52 AM 12.9 °F 0.7 °F 8.1 °F 81% 30.50 in 10.0 mi SSE 9.2 mph - N/A   Mostly Cloudy
5:52 AM 14.0 °F 2.0 °F 10.0 °F 84% 30.49 in 10.0 mi South 9.2 mph - N/A   Overcast
6:52 AM 15.1 °F 2.5 °F 10.0 °F 80% 30.48 in 10.0 mi SSE 10.4 mph - N/A   Overcast
7:52 AM 15.1 °F 1.1 °F 10.0 °F 80% 30.44 in 10.0 mi SSE 12.7 mph - N/A   Mostly Cloudy
8:52 AM 16.0 °F 0.6 °F 10.0 °F 77% 30.44 in 10.0 mi SSE 16.1 mph - N/A   Partly Cloudy
9:52 AM 18.0 °F 4.2 °F 12.0 °F 78% 30.43 in 10.0 mi SSE 13.8 mph - N/A   Overcast
10:52 AM 19.9 °F 6.7 °F 12.9 °F 74% 30.40 in 10.0 mi SSE 13.8 mph - N/A   Overcast
11:52 AM 21.9 °F 9.2 °F 12.0 °F 66% 30.36 in 10.0 mi South 13.8 mph - N/A   Overcast
12:52 PM 23.0 °F 10.1 °F 12.0 °F 63% 30.32 in 10.0 mi South 15.0 mph 21.9 mph N/A   Overcast
1:52 PM 24.1 °F 13.1 °F 12.0 °F 60% 30.31 in 10.0 mi South 11.5 mph - N/A   Overcast
2:52 PM 26.1 °F 16.2 °F 12.0 °F 55% 30.28 in 10.0 mi South 10.4 mph - N/A   Overcast
3:52 PM 26.1 °F 16.2 °F 12.9 °F 58% 30.27 in 10.0 mi South 10.4 mph - N/A   Overcast
4:38 PM 26.6 °F 16.8 °F 14.0 °F 59% 30.21 in 10.0 mi South 10.4 mph - N/A   Overcast
4:52 PM 26.1 °F 14.5 °F 12.9 °F 58% 30.27 in 10.0 mi SSW 13.8 mph 19.6 mph N/A   Overcast
5:52 PM 26.1 °F 15.0 °F 16.0 °F 66% 30.27 in 10.0 mi SSW 12.7 mph - N/A   Overcast
6:52 PM 26.1 °F 17.6 °F 18.0 °F 71% 30.27 in 10.0 mi SSW 8.1 mph - N/A   Overcast
7:52 PM 26.1 °F 17.6 °F 19.9 °F 78% 30.25 in 10.0 mi SSW 8.1 mph - N/A   Overcast
8:52 PM 26.1 °F 17.6 °F 23.0 °F 88% 30.24 in 10.0 mi SW 8.1 mph - N/A   Overcast
9:52 PM 26.1 °F 17.6 °F 23.0 °F 88% 30.22 in 10.0 mi SW 8.1 mph - N/A   Overcast
10:52 PM 27.0 °F 20.5 °F 23.0 °F 85% 30.20 in 10.0 mi SSW 5.8 mph - N/A   Overcast
11:52 PM 28.0 °F 20.8 °F 19.9 °F 72% 30.17 in 10.0 mi SSW 6.9 mph - N/A   Overcast